This demonstration page uses our WeatherBlox Daily Observations layout. Learn more.

Left ArrowRight Arrow

Hourly Observations for March 17, 2015

Temp ( °F °C ) Dew Point ( °F °C ) Humidity (%) Winds ( mph kmh ) Pressure ( in mb ) Visibility ( mi km ) Precip ( " mm )
12:15 am 00:15 Mostly Cloudy 52 11 43 6 72 72 N N/A 29.85 1011 10 16 N/A
12:35 am 00:35 Partly Cloudy 50 10 43 6 76 76 S 5 7 29.83 1010 10 16 N/A
12:55 am 00:55 Clear 52 11 43 6 72 72 SSW 5 7 29.83 1010 10 16 N/A
1:15 am 01:15 Clear 52 11 43 6 72 72 S 6 9 29.80 1009 10 16 N/A
1:35 am 01:35 Clear 50 10 41 5 71 71 S 6 9 29.80 1009 10 16 N/A
1:55 am 01:55 Clear 48 9 41 5 76 76 SSW 7 11 29.80 1009 10 16 N/A
2:15 am 02:15 Clear 50 10 41 5 71 71 SSW 6 9 29.77 1008 10 16 N/A
2:35 am 02:35 Clear 46 8 41 5 82 82 SSW 7 11 29.77 1008 10 16 N/A
2:55 am 02:55 Clear 48 9 41 5 76 76 W 5 7 29.77 1008 10 16 N/A
3:15 am 03:15 Clear 48 9 41 5 76 76 SW 6 9 29.77 1008 10 16 N/A
3:35 am 03:35 Clear 46 8 41 5 82 82 SW 5 7 29.77 1008 10 16 N/A
3:55 am 03:55 Clear 50 10 41 5 71 71 SSW 6 9 29.74 1007 10 16 N/A
4:15 am 04:15 Clear 52 11 41 5 67 67 SW 5 7 29.74 1007 10 16 N/A
4:35 am 04:35 Clear 52 11 41 5 67 67 SSW 7 11 29.74 1007 10 16 N/A
4:55 am 04:55 Clear 50 10 41 5 71 71 SSW 6 9 29.71 1006 10 16 N/A
5:15 am 05:15 Clear 50 10 41 5 71 71 SSW 6 9 29.71 1006 10 16 N/A
5:35 am 05:35 Clear 46 8 41 5 82 82 SW 5 7 29.71 1006 10 16 N/A
5:55 am 05:55 Clear 48 9 41 5 76 76 SSW 7 11 29.71 1006 10 16 N/A
6:15 am 06:15 Clear 48 9 41 5 76 76 SSW 6 9 29.71 1006 10 16 N/A
6:35 am 06:35 Clear 50 10 41 5 71 71 SSW 5 7 29.68 1005 10 16 N/A
6:55 am 06:55 Clear 50 10 41 5 71 71 S 7 11 29.68 1005 10 16 N/A
7:15 am 07:15 Clear 52 11 41 5 67 67 SW 5 7 29.68 1005 10 16 N/A
7:35 am 07:35 Sunny 54 12 43 6 67 67 W 10 17 29.68 1005 10 16 N/A
7:55 am 07:55 Sunny 61 16 45 7 55 55 W 10 17 29.68 1005 10 16 N/A
8:15 am 08:15 Sunny 63 17 46 8 56 56 WNW 12 19 29.68 1005 10 16 N/A
8:35 am 08:35 Sunny 64 18 46 8 52 52 WNW 12 19 29.68 1005 10 16 N/A
8:55 am 08:55 Partly Cloudy 66 19 50 10 56 56 WNW 12 19 29.68 1005 10 16 N/A
9:15 am 09:15 Partly Cloudy 68 20 50 10 53 53 WNW 20 31 29.68 1005 10 16 N/A
9:35 am 09:35 Partly Cloudy 68 20 50 10 53 53 WNW 21 33 29.68 1005 10 16 N/A
9:55 am 09:55 Partly Cloudy 68 20 50 10 53 53 WNW 20 31 29.68 1005 10 16 N/A
10:15 am 10:15 Mostly Cloudy 68 20 50 10 53 53 WNW 20 31 29.71 1006 10 16 N/A
10:35 am 10:35 Cloudy 66 19 50 10 56 56 WNW 21 33 29.71 1006 10 16 N/A
10:55 am 10:55 Cloudy 66 19 50 10 56 56 NW 17 28 29.71 1006 10 16 N/A
11:15 am 11:15 Cloudy 68 20 50 10 53 53 NW 17 28 29.71 1006 10 16 N/A
11:35 am 11:35 Partly Cloudy 70 21 50 10 50 50 NW 17 28 29.71 1006 10 16 N/A
11:55 am 11:55 Partly Cloudy 70 21 50 10 50 50 WNW 21 33 29.71 1006 10 16 N/A
12:15 pm 12:15 Mostly Cloudy 68 20 50 10 53 53 NW 20 31 29.71 1006 10 16 N/A
12:35 pm 12:35 Cloudy 66 19 48 9 52 52 NW 20 31 29.71 1006 10 16 N/A
12:55 pm 12:55 Cloudy 68 20 46 8 46 46 NW 29 46 29.74 1007 10 16 N/A
1:15 pm 13:15 Cloudy 64 18 45 7 49 49 NNW 25 41 29.74 1007 10 16 N/A
1:35 pm 13:35 Mostly Cloudy 68 20 46 8 46 46 NW 26 43 29.74 1007 10 16 N/A
1:55 pm 13:55 Partly Cloudy 66 19 45 7 46 46 NNW 22 35 29.74 1007 10 16 N/A
2:15 pm 14:15 Partly Cloudy 64 18 43 6 46 46 NW 18 30 29.77 1008 10 16 N/A
2:35 pm 14:35 Sunny 64 18 39 4 40 40 NNW 23 37 29.77 1008 10 16 N/A
2:55 pm 14:55 Sunny 63 17 36 2 37 37 NW 25 41 29.77 1008 10 16 N/A
3:15 pm 15:15 Sunny 63 17 34 1 34 34 NNW 28 44 29.77 1008 10 16 N/A
3:35 pm 15:35 Sunny 63 17 36 2 37 37 NW 23 37 29.77 1008 10 16 N/A
3:55 pm 15:55 Sunny 61 16 32 undefined 34 34 NNW 24 39 29.80 1009 10 16 N/A
4:15 pm 16:15 Sunny 61 16 32 undefined 34 34 NW 24 39 29.80 1009 10 16 N/A
4:35 pm 16:35 Sunny 59 15 32 undefined 36 36 NW 21 33 29.83 1010 10 16 N/A
4:55 pm 16:55 Sunny 57 14 32 undefined 39 39 NNW 21 33 29.83 1010 10 16 N/A
5:15 pm 17:15 Sunny 55 13 32 undefined 41 41 NNW 26 43 29.85 1011 10 16 N/A
5:35 pm 17:35 Sunny 55 13 30 -1 38 38 NW 22 35 29.88 1012 10 16 N/A
5:55 pm 17:55 Sunny 54 12 30 -1 41 41 NW 20 31 29.88 1012 10 16 N/A
6:15 pm 18:15 Sunny 54 12 30 -1 41 41 NW 15 24 29.88 1012 10 16 N/A
6:35 pm 18:35 Sunny 52 11 30 -1 44 44 N 17 28 29.91 1013 10 16 N/A
6:55 pm 18:55 Sunny 50 10 28 -2 43 43 N 15 24 29.91 1013 10 16 N/A
7:15 pm 19:15 Sunny 50 10 28 -2 43 43 NNW 15 24 29.94 1014 10 16 N/A
7:35 pm 19:35 Clear 46 8 27 -3 46 46 N 14 22 29.97 1015 10 16 N/A
7:55 pm 19:55 Clear 46 8 25 -4 43 43 N 15 24 30.00 1016 10 16 N/A
8:15 pm 20:15 Clear 45 7 23 -5 42 42 NNW 15 24 30.00 1016 10 16 N/A
8:35 pm 20:35 Clear 45 7 25 -4 46 46 NNW 13 20 30.03 1017 10 16 N/A
8:55 pm 20:55 Clear 45 7 23 -5 42 42 NNW 13 20 30.03 1017 10 16 N/A
9:15 pm 21:15 Clear 45 7 21 -6 39 39 NNW 17 28 30.03 1017 10 16 N/A
9:35 pm 21:35 Clear 43 6 21 -6 42 42 NNW 15 24 30.06 1018 10 16 N/A
9:55 pm 21:55 Clear 43 6 19 -7 39 39 NNW 13 20 30.06 1018 10 16 N/A
10:15 pm 22:15 Clear 43 6 14 -10 31 31 NNW 18 30 30.09 1019 10 16 N/A
10:35 pm 22:35 Clear 41 5 14 -10 33 33 NNW 25 41 30.09 1019 10 16 N/A
10:55 pm 22:55 Clear 39 4 14 -10 36 36 NW 23 37 30.12 1020 10 16 N/A
11:15 pm 23:15 Clear 37 3 14 -10 38 38 NW 26 43 30.12 1020 10 16 N/A
11:35 pm 23:35 Clear 37 3 14 -10 38 38 NW 29 46 30.12 1020 10 16 N/A
11:55 pm 23:55 Clear 36 2 14 -10 41 41 NW 29 46 30.15 1021 10 16 N/A

Powered by AerisWeather